Wind_Speed
74 77 81 85 89 95 103 110 114 108 106 108 103 102 106 107 108 109 109 108 111 108 107 109 115 116 117 106 106 111 108 108 101 105 104 107 105 104 105 107 99 98 89 74
81 85 90 93 100 103 109 111 110 105 107 105 103 102 102 102 102 102 102 104 103 105 105 103 104 107 110 110 106 106 108 105 94 90 100 103 109 110 109 106 103 95 88 69
88 92 98 105 109 110 112 113 105 97 94 95 95 97 100 102 103 103 102 102 105 106 106 105 102 107 108 108 108 108 105 99 96 85 87 94 96 95 101 107 101 92 93 80
97 99 105 114 116 114 108 104 101 94 94 91 93 94 97 99 101 100 102 101 101 101 98 99 99 95 98 99 96 94 93 85 87 76 73 85 90 87 90 95 93 96 86 88
104 109 112 124 115 113 109 101 100 97 91 91 93 96 96 94 95 97 96 93 94 94 92 92 91 93 93 92 93 91 90 85 81 69 67 79 84 77 79 83 86 88 77 80
110 114 118 123 120 112 109 105 98 94 92 92 90 87 85 86 85 86 86 85 84 85 84 85 84 86 87 86 85 87 82 82 77 65 75 89 77 72 75 73 79 80 75 73
117 119 125 122 113 107 104 101 98 95 89 85 79 74 72 71 69 67 69 68 68 70 71 71 72 72 71 70 73 73 75 69 66 54 72 73 61 69 68 73 76 79 75 75
126 123 124 117 112 106 102 100 96 89 84 79 72 69 63 61 60 59 58 58 57 60 61 61 60 58 59 59 59 59 61 58 56 58 63 62 71 69 75 81 76 76 77 75
124 122 121 110 108 102 101 97 89 82 76 70 64 60 57 55 53 51 50 48 47 49 49 48 50 49 48 47 46 47 50 50 50 52 53 56 57 57 66 75 68 75 73 74
121 115 111 106 104 101 98 87 82 76 70 64 59 55 53 48 45 45 42 39 39 39 39 38 38 38 37 38 38 39 42 43 44 44 45 46 46 51 55 63 64 74 78 74
120 112 108 106 102 98 87 81 75 69 64 59 54 50 47 43 41 39 36 34 32 31 31 29 29 30 30 30 30 31 34 35 36 36 37 38 43 45 49 53 62 74 77 82
111 109 105 104 99 89 82 76 71 67 61 57 53 49 44 40 38 35 32 30 28 27 26 24 23 23 24 23 23 24 26 30 29 30 29 32 34 36 39 45 58 64 78 75
106 107 105 101 93 83 79 74 69 64 59 54 50 46 44 40 37 33 30 27 25 23 20 19 18 19 19 19 18 19 22 27 26 25 24 24 28 31 35 44 54 57 69 71
108 104 105 97 86 80 76 72 67 62 58 52 48 43 39 35 32 28 26 24 20 17 17 14 14 14 14 14 13 15 18 21 21 19 19 22 26 30 34 42 48 55 65 68
107 105 104 94 81 78 76 71 64 60 57 51 46 42 37 32 28 25 22 20 16 15 12 11 10 11 12 11 12 13 14 16 15 14 19 22 27 32 34 38 48 57 65 67
107 103 100 91 83 77 74 68 62 58 54 49 45 41 37 31 27 23 20 18 15 13 9 8 8 9 9 9 11 12 13 14 13 16 19 21 25 33 33 32 43 55 65 70
105 100 94 84 82 78 72 66 59 56 55 48 43 40 35 29 25 22 20 17 14 10 6 6 7 8 9 9 10 12 12 13 13 17 19 22 26 33 41 47 47 51 57 62
102 99 91 80 76 73 72 65 57 52 52 47 42 38 33 28 24 21 18 15 14 10 7 5 4 6 8 10 11 11 13 13 15 17 20 22 24 33 41 46 54 59 62 65
98 96 87 79 75 70 66 62 55 49 46 46 41 37 33 27 23 19 17 16 12 9 6 5 5 6 5 8 10 12 14 14 16 18 20 23 26 29 35 45 49 52 58 61
96 94 84 78 74 70 64 60 54 49 43 44 42 36 32 29 24 19 16 15 11 8 6 6 5 6 9 8 8 10 11 13 16 18 20 23 27 30 33 38 45 49 54 56
95 91 82 77 72 68 62 58 53 48 43 39 41 36 32 29 25 20 17 14 13 11 7 7 8 7 9 7 7 9 14 14 16 18 20 21 25 30 34 38 43 47 50 53
94 89 78 74 70 66 61 57 55 49 43 38 35 36 31 28 26 22 18 14 12 11 11 9 10 10 11 12 11 10 12 16 18 19 19 22 25 27 32 35 39 43 47 50
92 85 76 73 69 63 60 57 52 48 44 39 34 33 32 26 25 23 19 16 13 11 11 11 11 12 14 15 15 14 15 16 18 20 22 23 24 27 29 32 35 39 43 46
90 81 72 69 65 62 58 56 52 47 42 38 33 31 31 29 24 22 21 17 15 14 13 12 13 12 14 17 18 18 19 20 21 21 19 22 25 27 30 32 35 38 41 44
88 77 69 65 63 62 58 56 52 49 45 42 38 33 30 29 27 23 20 18 16 14 14 15 15 14 15 17 17 21 22 23 23 24 25 26 26 28 29 28 30 32 33 37
85 73 66 63 61 59 57 53 50 46 44 41 38 35 31 28 27 25 22 18 15 14 14 15 17 18 17 17 19 21 22 24 25 27 28 30 31 32 32 33 33 35 37 39
83 71 65 63 60 57 55 53 49 46 43 41 39 37 32 30 27 26 24 22 19 16 14 14 14 15 18 19 21 22 23 25 26 28 29 29 30 32 34 36 37 38 40 41
Wind_Direction
322 321 318 315 312 311 314 311 308 304 301 298 295 292 288 286 283 281 280 278 277 276 273 271 268 268 271 273 269 266 264 262 260 259 258 258 258 257 255 254 256 255 255 252
324 321 319 319 317 313 310 308 308 302 298 295 293 291 288 286 285 284 282 280 280 278 277 277 274 274 272 271 271 270 268 267 264 257 256 257 255 254 254 255 253 254 257 255
325 323 323 320 314 309 307 309 303 303 298 294 291 290 288 287 286 284 283 281 280 278 276 276 274 271 270 270 270 269 267 267 266 261 258 258 257 255 255 256 256 255 253 252
328 326 320 316 313 314 313 310 307 306 300 297 293 290 288 285 284 284 282 280 279 277 276 274 274 274 271 271 271 269 268 264 262 259 254 256 256 253 252 252 254 253 252 249
326 321 319 318 318 318 316 309 307 306 302 299 296 293 291 290 286 283 282 282 279 279 278 277 275 274 273 271 268 268 267 265 261 258 255 252 251 246 244 246 249 250 245 245
324 323 318 319 320 318 313 314 311 310 306 302 299 297 293 287 285 284 283 281 281 280 277 275 273 271 269 269 269 267 266 266 264 257 256 251 242 251 249 244 241 243 238 239
326 323 321 322 320 318 316 315 315 312 310 307 306 301 295 293 290 286 282 280 279 275 272 270 269 268 267 267 265 263 262 261 261 255 249 254 254 248 248 240 234 234 233 235
324 323 324 322 319 320 318 318 318 317 314 312 309 305 303 297 293 288 286 284 282 278 274 274 274 273 270 267 266 264 264 263 260 252 252 249 250 240 233 229 222 224 225 224
325 325 326 324 323 322 321 323 321 319 315 314 312 309 305 302 298 294 291 289 283 279 277 274 272 270 270 268 265 262 259 257 255 252 250 249 249 240 235 231 220 224 221 216
329 328 326 326 324 324 325 325 323 320 319 319 317 312 308 306 302 297 294 290 285 281 279 276 274 272 266 261 258 255 253 254 253 251 250 246 244 240 233 226 221 222 218 213
328 329 328 328 327 328 328 327 326 324 325 322 319 316 315 312 307 303 300 294 291 287 282 277 270 266 265 261 257 252 248 247 247 248 246 243 240 235 229 221 220 217 214 216
332 329 331 330 331 331 330 332 330 329 329 327 323 322 321 318 315 311 307 301 295 288 283 281 277 269 265 261 254 248 244 245 240 240 241 238 237 231 224 216 217 213 217 213
333 333 332 334 334 333 334 336 334 333 331 330 327 326 326 326 323 319 314 308 302 299 288 282 276 267 262 255 247 241 235 238 237 236 233 231 226 221 212 212 216 205 215 214
336 335 335 336 336 336 339 340 338 336 333 334 330 330 329 329 327 322 316 311 305 294 284 280 272 263 254 248 238 232 230 234 234 230 221 219 212 208 204 207 209 199 205 210
337 337 338 338 339 340 342 343 341 339 338 335 333 334 333 332 331 329 323 316 308 296 289 274 268 257 251 236 224 220 222 229 223 207 209 209 204 196 197 202 201 199 202 206
339 340 341 340 341 342 343 345 344 341 339 338 336 337 336 336 335 336 333 324 314 298 285 268 257 252 236 223 207 205 204 212 204 186 196 199 205 195 189 199 206 206 202 205
340 341 343 344 343 343 344 346 346 343 339 340 340 339 338 338 341 340 339 329 321 299 278 255 246 223 214 209 201 200 195 195 190 178 189 197 196 196 193 179 187 197 202 207
341 341 344 345 346 345 344 348 348 345 339 341 343 342 340 341 343 343 337 331 328 316 287 250 236 227 223 209 200 201 193 185 188 186 185 195 199 200 195 193 194 197 200 202
341 343 344 346 347 349 347 347 347 346 343 341 346 345 341 344 345 347 343 332 331 318 286 245 212 214 225 216 205 196 192 190 190 189 188 191 201 205 205 202 199 204 209 209
342 344 345 347 348 349 349 348 350 348 347 342 344 348 344 345 345 345 343 340 327 317 289 255 241 223 210 215 218 201 197 197 193 194 196 201 200 203 206 210 210 208 213 214
343 346 346 347 348 350 350 352 351 350 348 347 340 347 347 345 346 346 343 341 333 308 289 256 242 227 228 219 232 229 207 198 198 201 201 204 209 210 213 213 214 216 219 220
344 347 346 348 349 350 352 353 353 352 352 349 344 342 350 346 346 346 342 339 330 322 298 276 249 245 238 232 225 231 230 215 208 213 212 209 210 212 216 219 221 221 223 225
346 348 347 348 349 350 353 356 355 354 354 352 349 345 346 352 346 346 344 335 326 316 312 304 283 261 248 241 235 232 234 238 233 223 220 220 217 215 215 218 223 225 226 227
347 348 348 348 350 351 353 356 356 356 357 355 354 350 347 349 353 349 347 344 334 320 309 300 288 279 274 258 252 239 239 241 240 244 241 235 231 229 226 225 225 225 226 227
347 348 348 348 351 352 354 355 356 359 360 360 360 357 354 352 351 354 351 347 341 327 313 305 295 288 281 276 272 261 254 246 246 250 248 243 240 241 240 239 240 239 243 241
347 347 348 350 352 352 354 354 355 356 0 2 1 360 0 358 355 354 355 353 347 336 326 315 306 299 290 278 272 267 264 263 259 252 250 250 249 248 249 248 244 241 240 240
347 347 349 350 351 351 353 354 355 356 358 360 2 4 2 1 1 358 355 353 351 348 339 326 313 301 295 291 287 282 276 271 269 269 270 266 261 257 255 254 254 252 250 248
Height
10543 10530 10519 10505 10491 10473 10451 10432 10415 10399 10383 10366 10356 10343 10330 10322 10312 10305 10299 10294 10285 10284 10283 10285 10282 10279 10266 10273 10282 10276 10280 10286 10304 10313 10320 10317 10319 10328 10327 10330 10348 10349 10360 10387
10522 10508 10495 10477 10459 10442 10425 10406 10387 10370 10351 10331 10319 10307 10292 10281 10273 10266 10260 10254 10248 10244 10244 10242 10246 10241 10238 10235 10239 10239 10241 10243 10261 10286 10286 10286 10282 10286 10290 10298 10313 10323 10339 10375
10503 10485 10463 10448 10433 10412 10393 10373 10354 10337 10319 10305 10288 10273 10255 10244 10237 10228 10222 10218 10207 10204 10203 10204 10209 10203 10201 10202 10202 10201 10205 10216 10220 10242 10255 10248 10251 10265 10268 10271 10283 10306 10310 10348
10477 10458 10441 10422 10397 10377 10354 10336 10318 10305 10285 10271 10251 10239 10224 10212 10201 10196 10186 10183 10172 10168 10170 10165 10164 10171 10167 10166 10167 10167 10166 10180 10182 10204 10217 10215 10216 10230 10241 10245 10262 10260 10304 10303
10452 10435 10411 10384 10358 10337 10317 10299 10284 10271 10257 10235 10217 10199 10187 10179 10167 10154 10148 10144 10138 10135 10136 10130 10135 10129 10127 10133 10129 10134 10138 10140 10151 10174 10185 10171 10177 10197 10206 10221 10234 10234 10268 10277
10430 10405 10378 10352 10326 10304 10282 10259 10247 10233 10216 10197 10183 10170 10156 10140 10130 10123 10114 10111 10107 10104 10102 10099 10097 10095 10094 10099 10101 10099 10106 10109 10123 10148 10144 10118 10147 10177 10182 10197 10202 10212 10233 10253
10402 10374 10347 10322 10296 10273 10252 10234 10214 10196 10180 10158 10145 10134 10122 10113 10103 10096 10086 10081 10078 10072 10067 10067 10065 10065 10070 10074 10070 10074 10075 10086 10092 10116 10099 10107 10144 10143 10155 10159 10172 10182 10205 10221
10373 10345 10318 10295 10270 10247 10224 10203 10183 10164 10144 10129 10119 10104 10096 10084 10075 10069 10064 10057 10053 10046 10043 10043 10043 10047 10047 10050 10052 10056 10056 10064 10073 10075 10075 10089 10090 10104 10109 10111 10140 10154 10173 10195
10348 10320 10294 10267 10243 10222 10197 10177 10154 10136 10121 10107 10096 10083 10072 10061 10052 10046 10039 10036 10032 10027 10025 10025 10024 10026 10029 10031 10033 10034 10034 10038 10045 10049 10057 10062 10068 10084 10093 10102 10136 10135 10152 10169
10323 10297 10271 10246 10222 10198 10174 10154 10134 10114 10099 10087 10075 10063 10051 10044 10036 10027 10023 10020 10015 10012 10011 10010 10010 10011 10011 10012 10014 10017 10018 10022 10026 10032 10038 10045 10055 10062 10072 10090 10108 10114 10124 10139
10302 10276 10251 10226 10199 10173 10155 10135 10114 10096 10084 10071 10057 10046 10037 10028 10020 10014 10010 10005 10002 9999 9998 9997 9996 9997 9997 9999 10001 10004 10007 10011 10015 10019 10024 10031 10036 10045 10054 10070 10080 10094 10104 10119
10282 10256 10232 10206 10179 10156 10137 10118 10098 10082 10068 10054 10040 10031 10024 10017 10009 10003 10000 9996 9992 9989 9987 9987 9988 9988 9988 9990 9992 9995 9999 10000 10004 10008 10014 10020 10026 10035 10045 10057 10059 10077 10090 10108
10262 10236 10212 10189 10162 10140 10120 10102 10084 10069 10054 10044 10030 10021 10013 10006 10000 9995 9991 9987 9984 9983 9981 9981 9981 9982 9983 9984 9986 9988 9990 9992 9996 10002 10008 10014 10019 10025 10035 10042 10047 10066 10082 10098
10244 10217 10194 10173 10150 10128 10108 10091 10073 10058 10044 10034 10022 10014 10008 10002 9996 9991 9986 9982 9980 9977 9976 9976 9976 9978 9978 9979 9982 9984 9984 9986 9992 9998 10004 10007 10012 10019 10024 10031 10041 10056 10069 10083
10229 10203 10178 10156 10137 10115 10097 10081 10065 10048 10036 10026 10017 10008 10002 9997 9992 9988 9984 9980 9978 9975 9973 9972 9973 9975 9976 9978 9980 9981 9983 9984 9990 9995 9998 10002 10008 10012 10018 10027 10036 10046 10059 10074
10214 10191 10166 10141 10122 10104 10088 10075 10060 10043 10031 10022 10012 10004 9997 9992 9987 9984 9981 9978 9976 9974 9973 9971 9972 9973 9975 9976 9979 9981 9983 9984 9988 9992 9995 10000 10005 10008 10013 10025 10036 10043 10053 10063
10199 10179 10160 10139 10115 10094 10082 10069 10055 10040 10025 10018 10009 10001 9995 9989 9985 9981 9979 9977 9975 9973 9972 9971 9972 9973 9974 9976 9978 9981 9984 9986 9988 9992 9994 9997 10004 10008 10010 10015 10026 10038 10049 10058
10189 10170 10149 10132 10115 10095 10073 10063 10051 10039 10023 10015 10007 10000 9993 9987 9983 9980 9977 9976 9975 9973 9972 9972 9973 9974 9974 9975 9977 9980 9983 9987 9989 9991 9994 9997 10001 10007 10011 10016 10021 10028 10037 10046
10180 10161 10142 10126 10107 10092 10076 10060 10048 10037 10025 10012 10007 9999 9992 9987 9983 9979 9977 9975 9974 9973 9973 9973 9973 9974 9975 9977 9978 9979 9982 9985 9988 9992 9995 9997 10000 10004 10010 10015 10021 10028 10034 10041
10174 10153 10134 10118 10102 10086 10072 10057 10045 10034 10025 10012 10005 10001 9992 9987 9982 9979 9977 9975 9973 9973 9974 9973 9974 9974 9975 9976 9978 9980 9982 9985 9987 9990 9994 9997 9999 10001 10005 10011 10017 10022 10027 10034
10168 10147 10128 10112 10097 10085 10071 10057 10045 10033 10024 10015 10003 10000 9994 9987 9983 9979 9977 9974 9973 9972 9972 9973 9973 9973 9974 9975 9977 9979 9981 9983 9985 9988 9991 9994 9997 10000 10002 10005 10009 10014 10020 10026
10162 10142 10124 10109 10094 10081 10069 10055 10042 10032 10023 10014 10006 9997 9995 9988 9983 9979 9976 9974 9973 9972 9971 9971 9971 9971 9972 9973 9975 9976 9978 9980 9982 9984 9987 9989 9992 9995 9998 10000 10003 10007 10012 10017
10158 10138 10120 10105 10092 10080 10068 10055 10045 10033 10023 10014 10007 9999 9993 9990 9983 9980 9977 9974 9972 9971 9970 9969 9970 9970 9970 9971 9973 9973 9975 9976 9978 9980 9981 9983 9985 9987 9990 9993 9996 9999 10002 10006
10152 10136 10120 10107 10093 10080 10067 10056 10046 10036 10026 10017 10009 10001 9994 9988 9985 9980 9976 9974 9971 9969 9968 9968 9968 9968 9969 9969 9969 9970 9971 9971 9972 9975 9977 9978 9980 9981 9983 9984 9987 9989 9992 9995
10150 10135 10120 10106 10092 10080 10066 10056 10046 10036 10026 10017 10010 10003 9996 9989 9984 9981 9977 9974 9972 9969 9968 9966 9965 9965 9965 9965 9965 9965 9966 9966 9967 9967 9968 9970 9971 9973 9975 9978 9980 9982 9984 9987
10148 10132 10119 10106 10093 10081 10069 10058 10048 10039 10030 10022 10013 10005 9998 9992 9986 9981 9978 9975 9972 9969 9967 9964 9962 9961 9961 9961 9960 9959 9959 9958 9959 9960 9961 9961 9963 9964 9965 9967 9969 9971 9973 9975
10145 10129 10116 10103 10092 10082 10071 10060 10050 10040 10031 10023 10016 10008 10000 9994 9988 9983 9978 9974 9972 9969 9966 9963 9961 9959 9957 9956 9955 9953 9953 9953 9953 9952 9952 9953 9954 9955 9956 9957 9958 9960 9961 9963